Flag for U.S.A. Weather past 2 weeks in Augusta, Georgia, U.S.A.

Now
80 °F

Clear.


Feels Like: 84 °F
Forecast: 73 / 90 °F
Wind: 5 mph from Southwest

Location: Daniel Field

Current Time: Sep 2, 2015 at 11:16:50 PM

Latest Report: Sep 2, 2015 at 10:53 PM


Visibility: 10 mi

Pressure: 30.00 "Hg

Humidity: 74%

Dew point: 71 °F

Location of AugustaLocation

Historic Weather in Augusta — Graph

°F

Augusta temperature yesterday

Maximum temperature yesterday: 90 °F (at 1:53 PM)
Minimum temperature yesterday: 74 °F (at 4:53 AM)
Average temperature yesterday: 82 °F

Past Weeks' High & Low Weather Summary

 TemperatureHumidityPressure
High96 °F (Aug 30, 2:53 PM)97% (Aug 19, 6:53 AM)30.21 "Hg (Aug 19, 6:53 AM)
Low69 °F (Aug 26, 6:53 AM)36% (Aug 25, 4:53 PM)29.83 "Hg (Aug 25, 4:53 PM)
Average80 °F70%30.02 "Hg
* Reported Aug 18 9:03 PM — Sep 2 9:53 PM, Augusta, Weather by CustomWeather, © 2015

Note: Actual official high and low records may vary slightly from our data, if they occured in-between our weather recording intervals... More about our weather records

Advertising

Augusta weather history for previous 24 hours

 ConditionsComfort  
Time TempWeatherWind HumidityBarometerVisibility
9:53 PM
Wed, Sep 2
82 °FClear.5 mph72%29.99 "Hg10 mi
8:53 PM83 °FClear.7 mph68%29.98 "Hg10 mi
7:53 PM88 °FPartly sunny.No wind54%29.97 "Hg10 mi
6:53 PM90 °FOvercast.3 mph48%29.96 "Hg10 mi
5:53 PM92 °FPartly sunny.3 mph46%29.97 "Hg10 mi
4:53 PM92 °FPassing clouds.No wind46%29.98 "Hg10 mi
3:53 PM91 °FPartly sunny.No wind47%30.01 "Hg10 mi
2:53 PM90 °FPassing clouds.No wind47%30.03 "Hg10 mi
1:53 PM91 °FScattered clouds.6 mph49%30.05 "Hg10 mi
12:53 PM90 °FSunny.5 mph50%30.07 "Hg10 mi
11:53 AM87 °FSunny.3 mph55%30.09 "Hg10 mi
10:53 AM86 °FSunny.No wind61%30.09 "Hg10 mi
9:53 AM84 °FPartly sunny.3 mph65%30.10 "Hg10 mi
8:53 AM78 °FSunny.No wind82%30.11 "Hg10 mi
7:53 AM76 °FPassing clouds.No wind85%30.11 "Hg10 mi
6:53 AM75 °FClear.No wind88%30.08 "Hg10 mi
5:53 AM74 °FClear.No wind91%30.07 "Hg10 mi
4:53 AM75 °FClear.No wind88%30.07 "Hg10 mi
3:53 AM76 °FClear.No wind85%30.07 "Hg10 mi
2:53 AM77 °FClear.No wind82%30.07 "Hg10 mi
1:53 AM77 °FClear.3 mph82%30.08 "Hg10 mi
12:53 AM78 °FClear.3 mph76%30.08 "Hg10 mi
11:53 PM
Tue, Sep 1
79 °FClear.6 mph77%30.08 "Hg10 mi
Weather by CustomWeather, © 2015

See weather overviewHow to use our weather pages